DAL515 KBHM-KATL

Flight info

Callsign DAL515
Flight time N/A
Altitude 29000
Route GUMMP DRSDN HOBTT3
Aircraft CL60/M-SADE3FGHIJ3J4J7P2RWXY/HB1D1

Departure

Time 2026-04-20 23:13
Airport Birmingham-Shuttlesworth International Airport (KBHM)

Arrival

Time N/A
Airport Hartsfield Jackson Atlanta International Airport (KATL)
Time Latitude Longitude Altitude Speed Heading
2026-04-20 23:00 33.56591 -86.74237 638 ft 0 kts 166°
2026-04-20 23:09 33.56588 -86.74237 638 ft 3 kts 200°
2026-04-20 23:09 33.56599 -86.74257 637 ft 3 kts 290°
2026-04-20 23:09 33.56592 -86.74321 635 ft 11 kts 263°
2026-04-20 23:09 33.56639 -86.74404 634 ft 13 kts 295°
2026-04-20 23:10 33.56641 -86.74535 632 ft 17 kts 270°
2026-04-20 23:10 33.56688 -86.74590 633 ft 12 kts 359°
2026-04-20 23:10 33.56737 -86.74588 634 ft 0 kts
2026-04-20 23:10 33.56759 -86.74579 634 ft 10 kts 36°
2026-04-20 23:11 33.56817 -86.74487 636 ft 18 kts 54°
2026-04-20 23:11 33.56893 -86.74357 640 ft 19 kts 57°
2026-04-20 23:11 33.56983 -86.74199 644 ft 25 kts 55°
2026-04-20 23:11 33.57082 -86.74028 649 ft 24 kts 56°
2026-04-20 23:12 33.57169 -86.73875 659 ft 13 kts 56°
2026-04-20 23:12 33.57242 -86.73840 662 ft 12 kts 332°
2026-04-20 23:12 33.57323 -86.73909 661 ft 13 kts 324°
2026-04-20 23:12 33.57289 -86.74013 656 ft 35 kts 235°
2026-04-20 23:13 33.56949 -86.74603 640 ft 133 kts 236°
2026-04-20 23:13 33.56316 -86.75710 1030 ft 178 kts 236°
2026-04-20 23:13 33.55464 -86.76885 1763 ft 200 kts 216°
2026-04-20 23:13 33.54097 -86.77301 2470 ft 212 kts 171°
2026-04-20 23:14 33.52748 -86.76657 3296 ft 218 kts 148°
2026-04-20 23:14 33.51433 -86.75672 3808 ft 225 kts 146°
2026-04-20 23:14 33.50119 -86.74658 4084 ft 221 kts 146°
2026-04-20 23:14 33.48725 -86.73872 4672 ft 233 kts 164°
2026-04-20 23:15 33.47023 -86.73362 5293 ft 271 kts 166°
2026-04-20 23:15 33.45106 -86.72805 5915 ft 293 kts 166°
2026-04-20 23:15 33.43132 -86.72228 7057 ft 296 kts 166°
2026-04-20 23:15 33.41129 -86.71642 8351 ft 302 kts 166°
2026-04-20 23:16 33.39059 -86.71036 9568 ft 311 kts 166°
2026-04-20 23:16 33.36961 -86.70425 10779 ft 317 kts 167°
2026-04-20 23:16 33.34821 -86.69801 11925 ft 326 kts 167°
2026-04-20 23:16 33.32535 -86.69136 12628 ft 350 kts 168°
2026-04-20 23:17 33.30059 -86.68417 13169 ft 376 kts 168°
2026-04-20 23:17 33.27452 -86.67660 13679 ft 399 kts 168°
2026-04-20 23:17 33.24678 -86.66853 14190 ft 420 kts 168°
2026-04-20 23:17 33.21787 -86.66011 14739 ft 437 kts 168°
2026-04-20 23:18 33.18808 -86.65142 15455 ft 448 kts 168°
2026-04-20 23:18 33.15768 -86.64123 16266 ft 456 kts 160°
2026-04-20 23:18 33.12945 -86.62406 17020 ft 464 kts 146°
2026-04-20 23:18 33.10475 -86.59851 17705 ft 470 kts 130°
2026-04-20 23:19 33.08629 -86.56624 18408 ft 472 kts 114°
2026-04-20 23:19 33.07552 -86.52962 19049 ft 472 kts 98°
2026-04-20 23:19 33.07252 -86.49127 19732 ft 471 kts 88°
2026-04-20 23:19 33.07164 -86.45198 20430 ft 475 kts 88°
2026-04-20 23:20 33.07066 -86.41274 21177 ft 478 kts 88°
2026-04-20 23:20 33.06966 -86.37268 21689 ft 486 kts 88°
2026-04-20 23:20 33.06863 -86.33190 22147 ft 494 kts 88°
2026-04-20 23:20 33.06758 -86.29115 22621 ft 501 kts 88°
2026-04-20 23:21 33.06648 -86.24920 23148 ft 506 kts 88°
2026-04-20 23:21 33.06537 -86.20761 23655 ft 510 kts 88°
2026-04-20 23:21 33.06408 -86.16500 24212 ft 512 kts 89°
2026-04-20 23:21 33.06244 -86.12296 24763 ft 514 kts 89°
2026-04-20 23:22 33.06074 -86.08041 25327 ft 515 kts 89°
2026-04-20 23:22 33.05902 -86.03751 25900 ft 516 kts 89°
2026-04-20 23:22 33.05730 -85.99483 26466 ft 516 kts 89°
2026-04-20 23:22 33.05558 -85.95230 27029 ft 517 kts 89°
2026-04-20 23:23 33.05384 -85.90985 27592 ft 517 kts 89°
2026-04-20 23:23 33.05208 -85.86693 28109 ft 518 kts 89°
2026-04-20 23:23 33.05030 -85.82391 28497 ft 521 kts 89°
2026-04-20 23:23 33.04849 -85.78052 28816 ft 526 kts 89°
2026-04-20 23:24 33.04477 -85.69250 28106 ft 535 kts 89°
2026-04-20 23:24 33.04286 -85.64892 27417 ft 525 kts 89°
2026-04-20 23:24 33.04097 -85.60591 26722 ft 515 kts 89°
2026-04-20 23:25 33.03910 -85.56369 26053 ft 506 kts 89°
2026-04-20 23:25 33.03725 -85.52221 25391 ft 498 kts 89°
2026-04-20 23:25 33.03543 -85.48141 24734 ft 492 kts 89°
2026-04-20 23:25 33.03364 -85.44111 24178 ft 487 kts 89°
2026-04-20 23:26 33.03184 -85.40101 24060 ft 489 kts 89°
2026-04-20 23:26 33.03003 -85.36025 24029 ft 500 kts 89°
2026-04-20 23:26 33.02815 -85.31804 23734 ft 513 kts 89°
2026-04-20 23:26 33.02620 -85.27570 23561 ft 509 kts 89°
2026-04-20 23:27 33.02427 -85.23431 23443 ft 503 kts 89°
2026-04-20 23:27 33.02262 -85.19257 23286 ft 499 kts 84°
2026-04-20 23:27 33.02805 -85.15253 22857 ft 492 kts 68°
2026-04-20 23:27 33.04330 -85.11713 22278 ft 470 kts 47°
2026-04-20 23:28 33.06654 -85.09100 21867 ft 445 kts 28°
2026-04-20 23:28 33.09329 -85.07315 21378 ft 442 kts 23°
2026-04-20 23:28 33.11985 -85.05481 20836 ft 440 kts 26°
2026-04-20 23:28 33.14551 -85.03477 20621 ft 438 kts 29°
2026-04-20 23:29 33.17024 -85.01327 20573 ft 441 kts 32°
2026-04-20 23:29 33.19376 -84.98933 20627 ft 446 kts 40°
2026-04-20 23:29 33.21611 -84.96349 20842 ft 441 kts 32°
2026-04-20 23:29 33.24238 -84.94631 21110 ft 431 kts 13°
2026-04-20 23:30 33.27173 -84.94025 21345 ft 426 kts 359°
2026-04-20 23:30 33.30102 -84.94217 21577 ft 423 kts 348°
2026-04-20 23:30 33.32956 -84.95161 22137 ft 423 kts 336°
2026-04-20 23:30 33.35531 -84.96787 23100 ft 415 kts 325°
2026-04-20 23:31 33.37730 -84.98953 23943 ft 412 kts 315°
2026-04-20 23:31 33.39512 -85.01663 24529 ft 415 kts 303°
2026-04-20 23:31 33.40720 -85.04790 25021 ft 422 kts 290°
2026-04-20 23:31 33.41380 -85.08231 25633 ft 424 kts 284°
2026-04-20 23:32 33.41923 -85.11629 26654 ft 413 kts 285°
2026-04-20 23:32 33.42462 -85.14967 27625 ft 404 kts 284°
2026-04-20 23:32 33.43003 -85.18295 27467 ft 416 kts 284°
2026-04-20 23:32 33.43546 -85.21652 26668 ft 408 kts 284°
2026-04-20 23:33 33.44073 -85.24932 26041 ft 399 kts 284°
2026-04-20 23:33 33.44587 -85.28140 25473 ft 389 kts 285°
2026-04-20 23:33 33.45095 -85.31321 24919 ft 391 kts 285°
2026-04-20 23:33 33.45609 -85.34522 24384 ft 400 kts 285°
2026-04-20 23:34 33.46141 -85.37843 23840 ft 408 kts 285°
2026-04-20 23:34 33.46675 -85.41188 23295 ft 413 kts 285°
2026-04-20 23:34 33.47207 -85.44537 22746 ft 412 kts 285°
2026-04-20 23:34 33.47741 -85.47906 22197 ft 410 kts 284°
2026-04-20 23:35 33.48270 -85.51250 21656 ft 408 kts 285°
2026-04-20 23:35 33.49309 -85.57842 20584 ft 403 kts 285°
2026-04-20 23:35 33.49830 -85.61156 20043 ft 401 kts 285°
2026-04-20 23:36 33.50342 -85.64416 19517 ft 398 kts 285°
2026-04-20 23:36 33.50851 -85.67663 18978 ft 396 kts 284°
2026-04-20 23:36 33.51351 -85.70866 18480 ft 394 kts 284°
2026-04-20 23:36 33.51859 -85.74116 17941 ft 392 kts 284°